RH
89 86 93 97 100 98 97 99 99 99 95 91 86 89 81 84 84 83 83 92 98 99 99 99 100 100 100 97 99 99 100 97 97 99 99 99 98 99
95 94 92 86 76 70 92 95 91 91 93 95 89 88 83 87 85 84 90 92 94 96 99 100 99 99 99 99 99 98 98 98 99 100 99 99 99 98
57 57 60 66 76 85 91 95 87 88 86 86 84 87 89 91 90 94 100 100 99 99 100 100 98 99 97 98 97 99 99 100 99 100 99 99 98 97
65 70 76 82 92 93 92 88 84 88 87 90 86 92 97 93 95 98 99 96 98 98 99 98 97 96 95 94 98 98 97 97 98 98 93 75 98 97
81 81 83 88 87 86 87 92 96 93 92 91 93 95 98 99 99 99 95 98 98 97 95 95 94 94 93 97 97 94 93 90 58 28 28 46 75 96
83 81 89 100 98 94 93 88 88 87 86 90 93 99 99 98 98 96 93 92 92 93 91 87 83 78 73 73 56 39 34 28 19 20 37 47 46 44
85 86 89 88 88 86 82 84 84 84 85 86 87 88 86 80 70 62 55 52 46 42 38 34 31 29 29 30 29 24 23 24 34 43 45 45 63 70
81 80 79 80 65 38 37 20 11 13 14 15 16 21 24 26 27 29 30 31 34 29 26 25 20 19 20 25 32 39 42 46 48 49 47 47 46 45
24 13 10 8 7 8 10 9 11 10 11 13 16 18 21 24 26 27 30 32 34 33 27 23 29 38 42 45 47 50 51 53 54 53 52 50 49 46
8 8 7 8 8 8 8 8 10 13 16 16 18 20 21 21 22 23 23 24 25 27 34 40 46 50 51 50 51 52 52 50 49 50 52 51 48 45
9 9 8 9 8 8 8 9 10 12 14 15 16 16 19 20 23 28 39 47 50 50 50 52 51 50 51 51 52 52 48 51 53 53 53 50 47 45
9 9 9 9 7 8 9 10 12 14 16 23 31 33 36 40 42 47 50 50 52 55 55 57 51 50 52 55 56 59 60 61 62 60 56 52 48 48
10 10 11 9 9 9 9 13 15 21 33 40 42 44 46 48 51 54 55 56 56 57 58 60 60 63 62 56 54 59 62 60 59 58 59 56 48 52
10 11 10 10 11 13 14 16 19 30 40 43 45 48 50 52 54 54 54 54 56 56 58 60 67 67 69 68 57 54 58 59 61 60 59 53 52 54
11 10 10 11 13 15 18 24 31 39 42 44 46 49 52 55 56 58 58 58 58 59 62 67 68 74 78 76 69 66 62 56 58 54 56 60 62 62
11 11 12 12 14 16 19 26 34 39 42 46 49 51 52 54 56 58 59 62 64 69 80 83 82 83 82 81 82 74 76 75 71 70 67 60 57 60
9 10 13 14 15 16 18 20 23 29 35 41 47 52 54 55 57 64 66 70 72 72 75 87 89 86 84 85 82 76 76 75 75 74 76 68 61 62
9 10 12 13 14 16 17 19 19 20 23 27 32 40 45 52 58 64 71 74 75 76 77 85 89 89 85 79 79 76 76 76 78 78 79 78 67 66
9 11 11 12 13 15 16 18 20 22 23 23 26 28 32 35 45 60 66 74 75 76 78 86 90 95 94 88 75 80 78 78 78 75 79 80 76 64
9 11 11 12 12 13 15 17 20 23 24 25 26 28 30 34 35 39 51 66 71 71 70 76 85 96 98 98 92 71 77 80 82 79 77 79 76 69
10 10 11 12 12 13 14 17 19 22 24 28 29 29 31 34 36 39 41 48 59 66 66 67 77 90 94 99 93 76 73 79 84 85 78 81 81 77
9 10 10 11 12 14 15 16 19 20 22 27 35 38 39 40 42 45 49 54 62 69 73 71 74 79 86 96 96 90 80 77 78 78 76 80 85 93
11 10 10 10 11 12 14 17 20 22 24 24 31 44 54 59 64 68 71 73 76 78 82 82 85 87 88 93 93 88 81 76 74 73 68 74 90 80
Wind_Speed
20 20 20 22 23 25 21 17 15 12 12 14 15 15 16 19 16 15 15 17 13 11 15 19 23 20 19 20 19 19 24 30 30 30 31 29 30 17
21 23 24 24 21 19 15 14 11 11 13 11 15 14 15 16 17 11 10 11 10 12 17 19 22 24 23 23 26 31 31 27 31 28 26 20 14 9
17 17 16 14 12 10 8 7 10 10 11 12 13 15 15 14 12 9 7 7 7 9 15 20 22 24 26 27 22 19 21 23 22 21 16 11 11 12
13 10 8 7 5 5 5 6 8 9 10 11 11 10 11 8 6 5 6 6 8 12 17 17 18 17 17 16 16 18 20 18 17 17 16 16 13 12
7 5 5 4 5 4 5 8 9 7 6 8 8 8 6 5 4 5 8 8 7 8 9 10 11 12 14 15 17 17 17 17 17 16 16 16 16 15
6 4 3 3 5 5 5 6 5 4 5 6 6 5 5 4 4 5 7 7 7 7 8 8 9 11 11 13 14 14 15 15 15 13 14 13 12 11
6 5 4 4 4 4 4 5 4 4 5 5 6 6 6 6 6 6 6 6 7 7 8 10 10 11 13 14 15 14 14 13 11 11 11 11 11 10
5 4 3 2 2 3 3 4 4 4 5 5 6 6 7 7 7 8 8 8 8 9 10 12 12 12 12 11 10 9 8 8 9 10 11 11 12 12
4 3 2 2 3 3 5 5 6 6 6 6 6 6 7 7 8 8 8 9 8 10 10 8 7 7 7 6 6 7 8 9 11 12 13 12 13 11
3 1 0 2 2 4 5 5 5 5 5 5 5 6 6 7 7 7 7 7 7 6 6 4 4 5 6 7 7 8 10 12 13 12 12 11 12 15
2 0 1 3 4 4 4 4 4 4 5 4 5 5 5 6 5 4 5 6 5 7 7 6 6 7 7 8 10 12 13 12 12 12 12 12 16 19
1 0 1 2 3 3 3 3 3 3 3 3 3 3 4 4 5 5 6 7 7 6 5 8 10 9 4 6 8 9 9 10 12 15 18 18 20 20
1 1 2 3 3 3 2 3 2 2 2 3 4 4 5 5 6 7 8 9 9 9 11 11 10 12 11 12 14 13 16 16 16 17 20 23 21 20
2 2 2 3 3 3 3 3 3 3 4 5 5 6 7 8 9 10 11 12 12 12 10 13 16 13 14 16 18 14 15 16 18 18 20 21 21 20
3 3 2 3 3 3 4 4 5 6 6 7 8 9 10 11 13 14 13 13 13 12 13 13 14 15 16 18 21 21 20 18 15 17 15 10 15 19
4 4 3 3 4 5 6 6 7 8 9 9 10 11 12 14 14 14 14 14 14 12 10 13 15 16 17 18 20 22 20 18 15 18 21 22 21 21
7 6 5 6 6 7 8 8 10 11 11 12 13 13 14 15 15 15 14 15 15 14 13 11 15 19 20 21 23 20 20 20 16 19 19 19 19 20
9 8 8 8 8 9 9 10 11 12 13 14 15 15 16 16 17 16 14 15 16 16 16 14 15 17 20 22 21 18 19 20 17 16 19 23 24 20
11 10 10 11 10 11 11 12 12 13 15 15 16 16 16 17 17 17 16 16 17 18 18 17 17 17 19 23 26 22 18 18 22 23 22 24 27 24
13 13 13 13 13 13 13 13 14 14 15 16 16 16 16 17 18 17 17 17 19 19 20 19 17 16 19 22 26 28 25 24 23 24 25 24 25 24
16 16 15 15 15 14 14 14 16 16 16 16 16 17 17 18 18 18 18 18 19 20 21 21 20 20 22 23 27 29 27 27 24 22 22 25 27 26
17 18 17 17 17 16 15 16 17 17 17 17 17 17 17 18 19 19 19 20 21 21 22 20 20 21 23 24 27 29 28 26 25 22 20 21 23 25
20 19 20 19 18 18 17 18 19 19 18 18 19 19 19 20 20 21 21 21 22 23 22 22 21 22 23 24 25 28 27 26 25 26 24 18 19 21
Wind_Direction
257 261 267 271 275 281 281 273 271 278 280 282 283 288 296 298 296 292 288 284 277 246 230 233 238 232 249 268 228 240 256 260 264 263 262 264 270 274
252 257 263 268 273 274 271 273 275 279 277 279 278 291 291 293 295 307 295 285 265 255 247 238 242 249 249 249 262 261 265 254 258 266 265 266 265 271
256 258 263 267 266 267 271 264 268 269 273 279 289 293 290 287 288 288 284 275 272 244 239 238 244 243 255 259 268 263 261 261 259 258 261 251 245 240
251 252 260 277 272 248 247 259 262 268 274 273 288 286 287 292 300 305 289 274 263 256 254 251 252 262 267 266 265 263 264 263 260 254 252 249 240 235
226 228 229 206 221 231 249 260 261 270 266 270 277 288 292 290 321 320 302 287 278 271 267 265 263 264 262 256 257 264 261 261 261 259 254 248 239 230
195 218 233 200 230 239 256 262 268 276 280 287 303 301 301 309 311 299 292 293 289 284 283 277 267 261 258 257 260 261 262 263 265 260 256 252 252 251
176 173 176 188 216 250 257 266 277 290 295 296 291 291 295 296 294 297 297 295 290 286 280 280 284 283 276 269 266 267 266 259 252 247 246 248 251 253
159 169 193 219 246 268 259 275 299 311 306 298 291 288 291 295 298 299 300 301 310 294 291 294 293 281 271 267 262 257 245 236 237 240 244 249 256 262
184 184 189 253 292 313 309 326 328 323 308 304 299 299 300 300 300 302 302 303 300 296 302 304 298 286 279 263 249 242 242 244 246 247 252 260 267 266
165 172 254 312 335 326 327 336 332 325 324 321 316 315 310 311 317 318 318 319 319 316 321 308 298 293 286 272 262 261 256 252 255 260 261 260 270 280
162 198 354 331 355 347 351 347 337 328 328 332 328 328 327 327 336 336 336 335 337 319 318 319 320 318 294 275 266 263 269 272 265 257 247 262 285 285
172 220 349 321 339 6 4 358 346 337 344 345 340 335 331 329 330 327 322 319 321 321 308 322 312 318 300 280 262 262 268 267 256 249 251 261 279 279
198 312 323 336 337 350 334 337 341 343 352 342 337 331 325 319 314 311 308 306 300 288 289 299 298 305 294 281 273 273 275 270 268 264 263 271 279 279
239 269 295 316 328 342 335 326 294 303 311 313 313 310 306 302 299 297 295 294 289 287 283 288 293 297 294 296 294 290 283 278 273 271 270 274 273 269
253 275 293 310 314 312 304 294 282 292 297 300 299 299 300 299 296 294 295 296 295 294 294 289 286 289 289 290 295 300 308 307 294 274 250 261 276 271
263 273 290 310 307 296 292 290 287 289 294 297 298 299 301 303 299 297 298 298 298 302 298 293 289 287 289 292 294 299 306 300 291 282 274 271 270 267
266 271 288 297 296 292 288 288 290 292 295 295 295 296 300 300 298 294 294 295 296 300 298 289 284 288 292 295 294 302 304 299 300 300 293 285 273 273
269 270 276 282 285 287 289 289 291 291 290 290 292 293 296 295 292 291 292 294 296 300 300 298 289 287 289 288 294 300 297 302 301 299 298 295 289 287
274 273 274 278 283 288 291 293 294 291 291 293 292 291 293 295 293 291 293 291 290 292 294 296 296 297 296 295 301 303 298 304 306 300 300 295 293 293
271 272 275 278 282 287 291 294 296 295 296 294 292 291 290 292 293 294 292 290 289 290 291 291 292 296 291 293 293 294 298 301 302 301 301 297 291 292
268 270 273 277 282 283 286 290 293 296 298 295 293 289 288 285 288 290 292 292 294 294 294 296 298 294 293 289 286 295 298 301 301 300 301 298 298 297
264 268 272 274 278 280 284 288 293 296 297 294 291 287 286 283 285 287 289 291 293 294 294 294 292 289 285 285 288 292 298 299 301 300 294 289 290 287
269 268 269 271 274 276 282 287 291 294 296 293 289 285 283 283 285 286 287 289 290 293 295 296 293 291 289 288 291 294 298 300 303 302 297 294 286 286